Weather History for Thermopolis, WY

Change the Weather History Date:

Tuesday, December 11, 2012

  Actual Average (KWRL) Record (KWRL)
Temperature  
Mean Temperature 22 °F 18 °F  
Max Temperature 30 °F 31 °F 56 °F (1993)
Min Temperature 14 °F 5 °F -31 °F (1972)
Degree Days  
Heating Degree Days 43 47  
Month to date heating degree days 498  
Since 1 July heating degree days 2390  
Cooling Degree Days 0 0  
Month to date cooling degree days 0  
Year to date cooling degree days 535  
Moisture  
Dew Point 14 °F    
Average Humidity 78    
Maximum Humidity 93    
Minimum Humidity 59    
Precipitation  
Precipitation 0.00 in 0.01 in 0.07 in (1968)
Month to date precipitation 0.09  
Year to date precipitation 7.43  
Sea Level Pressure  
Sea Level Pressure 29.78 in    
Wind  
Wind Speed 11 mph (SSE)    
Max Wind Speed 32 mph    
Max Gust Speed 52 mph    
Visibility 10 miles    
Events      
T = Trace of Precipitation, MM = Missing Value Source: NWS Daily Summary

Daily Weather History Graph

Daily Weather History Graph

Search for Another Location

Airport:

Trip Planner

Search our weather history database for the weather conditions in past years. The results will help you decide how hot, cold, wet, or windy it might be!

Date:

Astronomy

Dec. 11, 2012 Rise Set
Actual Time 7:36 AM MST 4:36 PM MST
Civil Twilight 7:03 AM MST 5:09 PM MST
Nautical Twilight 6:27 AM MST 5:45 PM MST
Astronomical Twilight 5:52 AM MST 6:20 PM MST
Moon 5:33 AM MST (12/11) 3:19 PM MST (12/11)
Length of Visible Light 10h 05m
Length of Day
9h 00m
Waning Crescent, 4% of the Moon is Illuminated
Dec 11
Waning Crescent
Dec 13
New
Dec 19
First Quarter
Dec 28
Full
Jan 4
Last Quarter

Hourly Weather History & Observations

Time (MST) Temp. Windchill Dew Point Humidity Pressure Visibility Wind Dir Wind Speed Gust Speed Precip Events Conditions
12:15 AM 15.8 °F 6.1 °F 14.0 °F 93% 29.93 in 10.0 mi SSE 6.9 mph - N/A   Overcast
12:35 AM 15.8 °F 7.2 °F 14.0 °F 93% 29.93 in 10.0 mi SE 5.8 mph - N/A   Overcast
12:55 AM 15.8 °F 7.2 °F 14.0 °F 93% 29.92 in 10.0 mi SE 5.8 mph - N/A   Overcast
1:15 AM 15.8 °F 6.1 °F 14.0 °F 93% 29.92 in 10.0 mi SE 6.9 mph - N/A   Overcast
1:35 AM 15.8 °F 8.6 °F 14.0 °F 93% 29.92 in 10.0 mi SE 4.6 mph - N/A   Scattered Clouds
1:55 AM 15.8 °F 7.2 °F 14.0 °F 93% 29.91 in 10.0 mi SE 5.8 mph - N/A   Clear
2:15 AM 15.8 °F 7.2 °F 14.0 °F 93% 29.91 in 10.0 mi SE 5.8 mph - N/A   Clear
2:35 AM 15.8 °F 7.2 °F 14.0 °F 93% 29.91 in 10.0 mi SE 5.8 mph - N/A   Clear
2:55 AM 15.8 °F 7.2 °F 14.0 °F 93% 29.90 in 10.0 mi SSE 5.8 mph - N/A   Clear
3:15 AM 14.0 °F 2.9 °F 12.2 °F 93% 29.90 in 10.0 mi SE 8.1 mph - N/A   Clear
3:35 AM 14.0 °F 1.2 °F 12.2 °F 93% 29.89 in 10.0 mi SE 10.4 mph - N/A   Clear
4:15 AM 15.8 °F 7.2 °F 14.0 °F 93% 29.87 in 10.0 mi SSE 5.8 mph - N/A   Clear
4:35 AM 15.8 °F 4.2 °F 14.0 °F 93% 29.86 in 10.0 mi SE 9.2 mph - N/A   Clear
4:55 AM 15.8 °F 6.1 °F 14.0 °F 93% 29.87 in 10.0 mi SSE 6.9 mph - N/A   Clear
5:15 AM 14.0 °F 2.0 °F 12.2 °F 93% 29.86 in 10.0 mi SE 9.2 mph - N/A   Clear
5:35 AM 14.0 °F 3.9 °F 12.2 °F 93% 29.87 in 10.0 mi SE 6.9 mph - N/A   Clear
5:55 AM 14.0 °F 1.2 °F 12.2 °F 93% 29.86 in 10.0 mi SE 10.4 mph - N/A   Clear
6:15 AM 14.0 °F -0.2 °F 12.2 °F 93% 29.85 in 10.0 mi SE 12.7 mph - N/A   Clear
6:35 AM 14.0 °F 0.5 °F 12.2 °F 93% 29.84 in 10.0 mi SE 11.5 mph - N/A   Clear
6:55 AM 14.0 °F 0.5 °F 12.2 °F 93% 29.84 in 10.0 mi SE 11.5 mph - N/A   Clear
7:15 AM 14.0 °F -0.2 °F 12.2 °F 93% 29.84 in 10.0 mi SE 12.7 mph - N/A   Clear
7:35 AM 14.0 °F 2.0 °F 12.2 °F 93% 29.83 in 10.0 mi SSE 9.2 mph - N/A   Clear
7:55 AM 14.0 °F 2.0 °F 12.2 °F 93% 29.83 in 10.0 mi SSE 9.2 mph - N/A   Clear
8:15 AM 14.0 °F -0.8 °F 12.2 °F 93% 29.82 in 10.0 mi SSE 13.8 mph - N/A   Clear
8:35 AM 14.0 °F -3.0 °F 12.2 °F 93% 29.82 in 10.0 mi SSE 18.4 mph - N/A   Clear
8:55 AM 14.0 °F 1.2 °F 12.2 °F 93% 29.82 in 10.0 mi SSE 10.4 mph - N/A   Clear
9:15 AM 14.0 °F 2.0 °F 12.2 °F 93% 29.81 in 10.0 mi SE 9.2 mph - N/A   Clear
9:35 AM 14.0 °F 0.5 °F 12.2 °F 93% 29.81 in 10.0 mi SE 11.5 mph - N/A   Clear
9:55 AM 14.0 °F -0.8 °F 10.4 °F 86% 29.81 in 10.0 mi SE 13.8 mph - N/A   Clear
10:15 AM 14.0 °F 1.2 °F 10.4 °F 86% 29.80 in 10.0 mi SSE 10.4 mph - N/A   Clear
10:35 AM 15.8 °F 4.2 °F 10.4 °F 79% 29.79 in 10.0 mi SSE 9.2 mph - N/A   Clear
10:55 AM 17.6 °F 5.7 °F 10.4 °F 73% 29.79 in 10.0 mi SSE 10.4 mph - N/A   Clear
11:35 AM 15.8 °F 3.4 °F 8.6 °F 73% 29.77 in 10.0 mi SSE 10.4 mph 17.3 mph N/A   Clear
11:55 AM 17.6 °F 4.3 °F 10.4 °F 73% 29.76 in 10.0 mi SSE 12.7 mph 18.4 mph N/A   Clear
12:15 PM 17.6 °F 5.0 °F 10.4 °F 73% 29.75 in 10.0 mi SE 11.5 mph - N/A   Clear
12:35 PM 19.4 °F 7.9 °F 12.2 °F 74% 29.74 in 10.0 mi SSE 10.4 mph 20.7 mph N/A   Clear
12:55 PM 17.6 °F 5.7 °F 12.2 °F 79% 29.73 in 10.0 mi SSE 10.4 mph 17.3 mph N/A   Clear
1:15 PM 17.6 °F 3.7 °F 12.2 °F 79% 29.73 in 10.0 mi SE 13.8 mph - N/A   Clear
1:35 PM 21.2 °F 10.1 °F 12.2 °F 68% 29.73 in 10.0 mi SSE 10.4 mph 20.7 mph N/A   Clear
1:55 PM 21.2 °F 8.9 °F 14.0 °F 74% 29.72 in 10.0 mi SSE 12.7 mph - N/A   Clear
2:15 PM 23.0 °F 12.4 °F 14.0 °F 68% 29.73 in 10.0 mi South 10.4 mph 17.3 mph N/A   Clear
2:35 PM 26.6 °F 12.0 °F 15.8 °F 64% 29.72 in 10.0 mi SSW 23.0 mph 27.6 mph N/A   Clear
2:55 PM 26.6 °F 13.8 °F 15.8 °F 64% 29.71 in 10.0 mi SSW 17.3 mph 24.2 mph N/A   Clear
3:15 PM 26.6 °F 14.3 °F 15.8 °F 64% 29.71 in 10.0 mi South 16.1 mph 21.9 mph N/A   Clear
3:35 PM 26.6 °F 14.7 °F 17.6 °F 69% 29.71 in 10.0 mi SSW 15.0 mph 23.0 mph N/A   Clear
3:55 PM 26.6 °F 12.4 °F 15.8 °F 64% 29.71 in 10.0 mi South 21.9 mph 27.6 mph N/A   Clear
4:15 PM 26.6 °F 16.2 °F 15.8 °F 64% 29.71 in 10.0 mi SSE 11.5 mph 29.9 mph N/A   Mostly Cloudy
4:35 PM 24.8 °F 13.4 °F 15.8 °F 69% 29.72 in 10.0 mi SSE 12.7 mph 19.6 mph N/A   Mostly Cloudy
4:55 PM 26.6 °F 13.8 °F 15.8 °F 64% 29.71 in 10.0 mi South 17.3 mph 24.2 mph N/A   Scattered Clouds
5:15 PM 28.4 °F 14.4 °F 15.8 °F 59% 29.70 in 10.0 mi South 23.0 mph 29.9 mph N/A   Clear
5:35 PM 26.6 °F 13.4 °F 15.8 °F 64% 29.70 in 10.0 mi South 18.4 mph 25.3 mph N/A   Clear
5:55 PM 26.6 °F 14.3 °F 14.0 °F 59% 29.70 in 10.0 mi SSE 16.1 mph 25.3 mph N/A   Clear
6:15 PM 24.8 °F 11.9 °F 14.0 °F 64% 29.70 in 10.0 mi SE 16.1 mph 23.0 mph N/A   Clear
6:35 PM 24.8 °F 11.5 °F 14.0 °F 64% 29.69 in 10.0 mi SE 17.3 mph 24.2 mph N/A   Clear
6:55 PM 26.6 °F 10.3 °F 17.6 °F 69% 29.69 in 7.0 mi South 29.9 mph 41.4 mph N/A   Clear
7:15 PM 30.2 °F 14.7 °F 19.4 °F 64% 29.68 in 4.0 mi SSW 32.2 mph 51.8 mph N/A   Haze
7:35 PM 30.2 °F 15.4 °F 19.4 °F 64% 29.69 in 10.0 mi SSW 28.8 mph 40.3 mph N/A   Clear
7:55 PM 26.6 °F 14.7 °F 17.6 °F 69% 29.71 in 10.0 mi SSE 15.0 mph 35.7 mph N/A   Clear
8:15 PM 26.6 °F 14.7 °F 17.6 °F 69% 29.70 in 10.0 mi SE 15.0 mph 25.3 mph N/A   Clear
8:35 PM 26.6 °F 14.3 °F 17.6 °F 69% 29.70 in 10.0 mi SSE 16.1 mph 25.3 mph N/A   Scattered Clouds
8:55 PM 28.4 °F 17.0 °F 17.6 °F 64% 29.71 in 10.0 mi SSE 15.0 mph 27.6 mph N/A   Mostly Cloudy
9:15 PM 28.4 °F 15.8 °F 19.4 °F 69% 29.71 in 10.0 mi South 18.4 mph 33.4 mph N/A   Mostly Cloudy
9:35 PM 30.2 °F 18.9 °F 19.4 °F 64% 29.71 in 10.0 mi South 16.1 mph 35.7 mph N/A   Mostly Cloudy
9:55 PM 30.2 °F 14.9 °F 19.4 °F 64% 29.70 in 10.0 mi SSW 31.1 mph 39.1 mph N/A   Scattered Clouds
10:15 PM 28.4 °F 17.0 °F 17.6 °F 64% 29.71 in 10.0 mi SSE 15.0 mph 26.5 mph N/A   Scattered Clouds
10:35 PM 30.2 °F 18.5 °F 17.6 °F 60% 29.71 in 10.0 mi South 17.3 mph 21.9 mph N/A   Clear
10:55 PM 30.2 °F 18.1 °F 17.6 °F 60% 29.71 in 10.0 mi South 18.4 mph 24.2 mph N/A   Clear
11:15 PM 30.2 °F 20.2 °F 17.6 °F 60% 29.72 in 10.0 mi South 12.7 mph - N/A   Clear
11:35 PM 30.2 °F 20.2 °F 17.6 °F 60% 29.71 in 10.0 mi South 12.7 mph 17.3 mph N/A   Clear
11:55 PM 28.4 °F 19.1 °F 17.6 °F 64% 29.71 in 10.0 mi ESE 10.4 mph 17.3 mph N/A   Clear